Regional Weather Roundup
Issued by NWS

Home | Current Version | Previous Version | Graphics & Text | Print | Product List | Glossary On
Versions: 1 2 3 4 5 6 7 8 9 10 11 12 13 14 15 16 17 18 19 20 21 22 23 24 25 26 27 28 29 30 31 32 33 34 35 36 37 38 39 40 41 42 43 44 45 46 47 48 49 50
000
ASUS43 KFSD 251902
RWRSD

WEATHER ROUNDUP FOR SOUTH DAKOTA
NATIONAL WEATHER SERVICE SIOUX FALLS SD
200 PM CDT MON JUL 25 2016

NOTE: "FAIR" INDICATES FEW OR NO CLOUDS BELOW 12,000 FEET WITH NO
SIGNIFICANT WEATHER AND/OR OBSTRUCTIONS TO VISIBILITY.


SDZ001>005-009-010-012>017-252000-
NORTHWEST AND NORTH CENTRAL SOUTH DAKOTA

CITY           SKY/WX    TMP DP  RH WIND       PRES   REMARKS
BUFFALO          N/A     98  43  15 SW10G16   29.93F
FAITH            N/A     95  50  21 S23       30.00F
MOBRIDGE       SUNNY     96  56  26 S18G26    29.95F
$$

SDZ012>016-024>037-041>051-057-063-072>074-252000-
SOUTHWEST AND SOUTH CENTRAL SOUTH DAKOTA

CITY           SKY/WX    TMP DP  RH WIND       PRES   REMARKS
RAPID CTY ARPT SUNNY     90  57  32 S20G26    30.05F
PIERRE         SUNNY     94  51  23 S21G31    30.00F
CUSTER         SUNNY     80  53  39 S9G17     30.21F
ELLSWORTH AFB  SUNNY     89  57  32 S25G31    30.03F
PHILIP         SUNNY     95  57  27 MISG      30.01F
PINE RIDGE     SUNNY     89  55  31 S17G28    30.09F
WINNER         FAIR      93  41  16 S20G28    30.07F
$$

SDZ004>011-016>023-039-040-252000-
NORTHEAST SOUTH DAKOTA

CITY           SKY/WX    TMP DP  RH WIND       PRES   REMARKS
ABERDEEN       SUNNY     90  58  33 S16G23    30.02F
WATERTOWN      SUNNY     87  58  37 SW14      30.08F
BROOKINGS      SUNNY     83  57  41 SW13      30.11F
SISSETON         N/A     88  56  33 SW15      30.03F
$$

SDZ017-020-022-023-036>040-048>070-252000-
SOUTHEAST SOUTH DAKOTA

CITY           SKY/WX    TMP DP  RH WIND       PRES   REMARKS
SIOUX FALLS    SUNNY     83  57  41 SW13      30.11F
HURON          SUNNY     88  58  36 S12G24    30.05F
CHAMBERLAIN    SUNNY     90  58  33 S12G21    30.06F
MITCHELL       SUNNY     88  59  37 S16       30.08F
YANKTON        SUNNY     86  57  37 SE9       30.09F
$$

ABBREVIATIONS USED IN REMARKS
   TC - TEMPERATURE IN CELSIUS
  WCI - WIND CHILL INDEX
   HX - HEAT INDEX
  VSB - VISIBILITY




USA.gov is the U.S. government's official web portal to all federal, state and local government web resources and services.